TimeCST,TemperatureF,Dew PointF,Humidity,Sea Level PressureIn,VisibilityMPH,Wind Direction,Wind SpeedMPH,Gust SpeedMPH,PrecipitationIn,Events,Conditions,WindDirDegrees,DateUTC
12:15 AM,24.4,18.3,78,29.93,10.0,SW,6.9,-,N/A,,Clear,230,2014-01-19 06:15:00
12:35 AM,26.6,18.9,73,29.92,10.0,WSW,8.1,-,N/A,,Clear,240,2014-01-19 06:35:00
12:55 AM,27.3,18.5,69,29.91,10.0,WSW,6.9,-,N/A,,Clear,240,2014-01-19 06:55:00
1:15 AM,27.0,18.1,69,29.90,10.0,SW,5.8,-,N/A,,Clear,230,2014-01-19 07:15:00
1:35 AM,24.6,17.1,73,29.89,10.0,SW,8.1,-,N/A,,Clear,230,2014-01-19 07:35:00
1:55 AM,25.9,18.3,73,29.87,10.0,WSW,9.2,-,N/A,,Clear,240,2014-01-19 07:55:00
2:15 AM,28.2,19.0,68,29.86,10.0,WSW,11.5,-,N/A,,Clear,240,2014-01-19 08:15:00
2:35 AM,29.1,19.2,67,29.85,10.0,WSW,9.2,-,N/A,,Clear,250,2014-01-19 08:35:00
2:55 AM,29.8,19.9,67,29.84,10.0,WSW,9.2,-,N/A,,Clear,240,2014-01-19 08:55:00
3:15 AM,30.6,20.3,66,29.83,10.0,SW,10.4,-,N/A,,Clear,230,2014-01-19 09:15:00
3:35 AM,31.5,21.2,66,29.83,10.0,SW,12.7,-,N/A,,Clear,230,2014-01-19 09:35:00
3:55 AM,32.0,21.0,64,29.83,10.0,SW,11.5,17.3,N/A,,Clear,230,2014-01-19 09:55:00
4:15 AM,31.8,21.2,65,29.82,10.0,SW,11.5,-,N/A,,Clear,230,2014-01-19 10:15:00
4:35 AM,32.0,21.2,64,29.81,10.0,WSW,11.5,-,N/A,,Clear,250,2014-01-19 10:35:00
4:55 AM,33.1,21.9,64,29.81,10.0,WSW,16.1,-,N/A,,Clear,250,2014-01-19 10:55:00
5:15 AM,33.8,21.9,62,29.80,10.0,WSW,11.5,18.4,N/A,,Clear,250,2014-01-19 11:15:00
5:35 AM,33.6,21.7,62,29.80,10.0,SW,6.9,-,N/A,,Clear,230,2014-01-19 11:35:00
5:55 AM,33.3,21.9,63,29.79,10.0,WSW,13.8,-,N/A,,Clear,250,2014-01-19 11:55:00
6:15 AM,33.8,21.9,62,29.78,10.0,WSW,13.8,-,N/A,,Clear,240,2014-01-19 12:15:00
6:35 AM,33.3,21.6,62,29.78,10.0,WSW,11.5,-,N/A,,Clear,240,2014-01-19 12:35:00
6:55 AM,32.5,21.2,63,29.78,10.0,WSW,11.5,-,N/A,,Clear,240,2014-01-19 12:55:00
7:15 AM,33.1,21.6,63,29.78,10.0,WSW,15.0,-,N/A,,Clear,250,2014-01-19 13:15:00
7:35 AM,33.8,21.6,61,29.78,10.0,WSW,13.8,-,N/A,,Clear,250,2014-01-19 13:35:00
7:55 AM,33.8,21.7,61,29.77,10.0,WSW,15.0,-,N/A,,Clear,250,2014-01-19 13:55:00
8:15 AM,35.4,22.1,58,29.76,10.0,WSW,17.3,-,N/A,,Clear,250,2014-01-19 14:15:00
8:35 AM,37.0,22.1,55,29.76,10.0,West,15.0,-,N/A,,Clear,260,2014-01-19 14:35:00
8:55 AM,37.6,22.1,54,29.76,10.0,WSW,12.7,19.6,N/A,,Clear,250,2014-01-19 14:55:00
9:15 AM,39.9,22.1,49,29.75,10.0,West,16.1,-,N/A,,Clear,260,2014-01-19 15:15:00
9:35 AM,42.3,22.3,45,29.76,10.0,West,13.8,20.7,N/A,,Clear,260,2014-01-19 15:35:00
9:55 AM,45.5,21.9,39,29.76,10.0,West,13.8,23.0,N/A,,Clear,270,2014-01-19 15:55:00
10:15 AM,48.2,21.6,35,29.75,10.0,West,17.3,24.2,N/A,,Clear,260,2014-01-19 16:15:00
10:35 AM,51.4,20.1,29,29.76,10.0,West,17.3,21.9,N/A,,Clear,270,2014-01-19 16:35:00
10:55 AM,54.0,19.6,26,29.76,10.0,West,17.3,24.2,N/A,,Clear,280,2014-01-19 16:55:00
11:15 AM,55.9,18.3,23,29.76,10.0,WNW,20.7,29.9,N/A,,Clear,290,2014-01-19 17:15:00
11:35 AM,58.1,16.9,20,29.75,10.0,WNW,20.7,28.8,N/A,,Clear,290,2014-01-19 17:35:00
11:55 AM,60.3,15.3,17,29.75,10.0,WNW,23.0,28.8,N/A,,Clear,290,2014-01-19 17:55:00
12:15 PM,61.3,13.5,15,29.74,10.0,WNW,27.6,34.5,N/A,,Clear,290,2014-01-19 18:15:00
12:35 PM,61.9,12.7,15,29.73,10.0,WNW,25.3,33.4,N/A,,Clear,300,2014-01-19 18:35:00
12:55 PM,62.6,11.7,14,29.73,10.0,WNW,23.0,33.4,N/A,,Clear,300,2014-01-19 18:55:00
1:15 PM,63.0,9.0,12,29.72,10.0,WNW,26.5,39.1,N/A,,Clear,290,2014-01-19 19:15:00
1:35 PM,62.8,7.7,11,29.71,10.0,WNW,29.9,39.1,N/A,,Clear,290,2014-01-19 19:35:00
1:55 PM,63.9,4.6,10,29.71,10.0,WNW,33.4,39.1,N/A,,Clear,290,2014-01-19 19:55:00
2:15 PM,63.9,4.3,9,29.71,10.0,WNW,29.9,43.7,N/A,,Clear,300,2014-01-19 20:15:00
2:35 PM,64.4,3.0,9,29.70,10.0,WNW,31.1,40.3,N/A,,Clear,300,2014-01-19 20:35:00
2:55 PM,63.7,5.7,10,29.72,10.0,NW,31.1,43.7,N/A,,Clear,320,2014-01-19 20:55:00
3:15 PM,61.7,10.2,13,29.74,10.0,NW,25.3,41.4,N/A,,Clear,310,2014-01-19 21:15:00
3:35 PM,60.3,13.3,16,29.75,10.0,NW,26.5,33.4,N/A,,Clear,320,2014-01-19 21:35:00
3:55 PM,56.5,13.8,19,29.77,10.0,NW,21.9,28.8,N/A,,Clear,310,2014-01-19 21:55:00
4:15 PM,55.8,14.9,20,29.78,10.0,NW,18.4,24.2,N/A,,Clear,320,2014-01-19 22:15:00
4:35 PM,53.8,15.8,22,29.78,10.0,NW,16.1,-,N/A,,Clear,310,2014-01-19 22:35:00
4:55 PM,51.4,16.5,25,29.79,10.0,NW,12.7,-,N/A,,Clear,320,2014-01-19 22:55:00
5:15 PM,49.1,17.2,28,29.80,10.0,NW,10.4,-,N/A,,Clear,310,2014-01-19 23:15:00
5:35 PM,45.5,17.4,33,29.80,10.0,NW,10.4,-,N/A,,Clear,310,2014-01-19 23:35:00
5:55 PM,45.5,18.1,34,29.80,10.0,NW,11.5,-,N/A,,Clear,320,2014-01-19 23:55:00
6:15 PM,44.6,19.0,36,29.81,10.0,NW,12.7,-,N/A,,Clear,310,2014-01-20 00:15:00
6:55 PM,44.1,20.1,39,29.81,10.0,NW,11.5,-,N/A,,Clear,310,2014-01-20 00:55:00
7:15 PM,43.0,20.1,40,29.82,10.0,NW,11.5,-,N/A,,Clear,310,2014-01-20 01:15:00
7:35 PM,42.1,19.9,41,29.82,10.0,NW,11.5,-,N/A,,Clear,310,2014-01-20 01:35:00
7:55 PM,41.0,20.1,43,29.83,10.0,WNW,11.5,-,N/A,,Clear,300,2014-01-20 01:55:00
8:15 PM,40.8,20.3,44,29.83,10.0,WNW,11.5,-,N/A,,Clear,290,2014-01-20 02:15:00
8:35 PM,40.3,19.9,44,29.83,10.0,WNW,10.4,-,N/A,,Clear,290,2014-01-20 02:35:00
8:55 PM,41.0,20.1,43,29.84,10.0,WNW,12.7,-,N/A,,Clear,290,2014-01-20 02:55:00
9:15 PM,39.4,20.3,46,29.83,10.0,WNW,11.5,-,N/A,,Clear,290,2014-01-20 03:15:00
9:35 PM,39.9,20.3,45,29.84,10.0,WNW,10.4,-,N/A,,Clear,290,2014-01-20 03:35:00
9:55 PM,39.9,20.3,45,29.83,10.0,WNW,12.7,-,N/A,,Clear,300,2014-01-20 03:55:00
10:15 PM,40.5,20.5,45,29.83,10.0,WNW,9.2,-,N/A,,Clear,290,2014-01-20 04:15:00
10:35 PM,40.3,20.3,45,29.84,10.0,WNW,9.2,-,N/A,,Clear,290,2014-01-20 04:35:00
10:55 PM,37.0,21.0,52,29.84,10.0,WNW,8.1,-,N/A,,Clear,300,2014-01-20 04:55:00
11:15 PM,40.3,19.9,44,29.85,10.0,NW,9.2,-,N/A,,Clear,310,2014-01-20 05:15:00
11:35 PM,39.2,19.8,46,29.86,10.0,WNW,8.1,-,N/A,,Clear,290,2014-01-20 05:35:00
11:55 PM,34.3,20.5,57,29.86,10.0,West,4.6,-,N/A,,Clear,260,2014-01-20 05:55:00